Tracking 19575 objects as of 19-Feb-2019
HD Live streaming from Space Station
objects crossing your sky now

SLOSHSAT

Track SLOSHSAT now!
SLOSHSAT is classified as:


NORAD ID: 28544
Int'l Code: 2005-005C
Perigee: 259.4 km
Apogee: 32,758.2 km
Inclination: 6.7 °
Period: 574.0 minutes
Semi major axis: 22879 km
RCS: 0.5011 m2 (medium)
Launch date: February 12, 2005
Source: European Space Agency (ESA)
Launch site: FRENCH GUIANA (FRGUI)
aabbcc
Your satellite tracking list
Your tracking list is empty




NASA's NSSDC Master Catalog

Two Line Element Set (TLE):
1 28544U 05005C   19049.67160889 +.00001333 +00000-0 +32344-3 0  9990
2 28544 006.6888 200.2057 7102064 267.3383 017.0012 02.50855669122102
Source of the keplerian elements: AFSPC